Вернуться в каталог

FENGYUN 1C DEB

АктивенPO
NORAD 30568·DEBRIS·🇨🇳 China

Запущен May 10, 1999 с Taiyuan Satellite Launch Center

Loading…

Ближайшие Пролёты (ближайшие 24 часа)

TLE

СвежийSource: Space-Track

Эпоха: Sep 13, 2026, 12:11 UTC

1 30568U 99025ALJ 26256.50794751  .00005761  00000-0  11756-2 0  9997
2 30568  98.9445  92.6408 0018407  69.1365 357.2581 14.61247515 16578

Отслеживайте FENGYUN 1C DEB в реальном времени с AllMySat

Download on the App Store